Wetterdaten: Samstag, 05.09.2015
Datum Zeit Temp. A. Feuchte A. Luftdruck Regen Wind Richtung Richtung Sonnenschein ET UV Solar Taupunkt Windchill Windben Empfang
05.09.2015 00:02 15,0 C 80 % 1014,3 hPa 0,0 l/m 0,0 km/h (0 Bft) NO 51 0 min 0,000 mm 0,0 UV-I 0 W/m 11,6 C 15,0 C 0,0 km/h (0 Bft) 0,00 %
05.09.2015 00:07 15,0 C 80 % 1014,5 hPa 0,0 l/m 0,0 km/h (0 Bft) N-NO 26 0 min 0,000 mm 0,0 UV-I 0 W/m 11,6 C 15,0 C 0,0 km/h (0 Bft) 0,00 %
05.09.2015 00:12 14,9 C 80 % 1014,6 hPa 0,0 l/m 0,0 km/h (0 Bft) O-NO 66 0 min 0,000 mm 0,0 UV-I 0 W/m 11,5 C 14,9 C 0,0 km/h (0 Bft) 0,00 %
05.09.2015 00:17 14,9 C 80 % 1014,5 hPa 0,0 l/m 0,0 km/h (0 Bft) NO 37 0 min 0,000 mm 0,0 UV-I 0 W/m 11,5 C 14,9 C 0,0 km/h (0 Bft) 0,00 %
05.09.2015 00:22 14,9 C 80 % 1014,5 hPa 0,0 l/m 0,0 km/h (0 Bft) N-NW 341 0 min 0,000 mm 0,0 UV-I 0 W/m 11,5 C 14,9 C 0,0 km/h (0 Bft) 0,00 %
05.09.2015 00:27 14,9 C 81 % 1014,6 hPa 0,0 l/m 0,0 km/h (0 Bft) NO 47 0 min 0,000 mm 0,0 UV-I 0 W/m 11,7 C 14,9 C 0,0 km/h (0 Bft) 0,00 %
05.09.2015 00:32 14,9 C 82 % 1014,7 hPa 0,0 l/m 0,4 km/h (0 Bft) N-NW 346 0 min 0,000 mm 0,0 UV-I 0 W/m 11,9 C 14,9 C 4,0 km/h (1 Bft) 0,00 %
05.09.2015 00:37 14,8 C 83 % 1014,6 hPa 0,0 l/m 0,0 km/h (0 Bft) N 350 0 min 0,000 mm 0,0 UV-I 0 W/m 11,9 C 14,8 C 0,0 km/h (0 Bft) 0,00 %
05.09.2015 00:42 14,7 C 84 % 1014,7 hPa 0,0 l/m 0,0 km/h (0 Bft) NO 36 0 min 0,000 mm 0,0 UV-I 0 W/m 12,0 C 14,7 C 0,0 km/h (0 Bft) 0,00 %
05.09.2015 00:47 14,6 C 85 % 1014,6 hPa 0,0 l/m 0,0 km/h (0 Bft) NO 52 0 min 0,000 mm 0,0 UV-I 0 W/m 12,1 C 14,6 C 0,0 km/h (0 Bft) 0,00 %
05.09.2015 00:52 14,4 C 84 % 1014,5 hPa 0,3 l/m 0,0 km/h (0 Bft) N-NO 20 0 min 0,000 mm 0,0 UV-I 0 W/m 11,7 C 14,4 C 0,0 km/h (0 Bft) 0,00 %
05.09.2015 00:57 14,2 C 85 % 1014,8 hPa 0,0 l/m 0,0 km/h (0 Bft) NO 43 0 min 0,000 mm 0,0 UV-I 0 W/m 11,7 C 14,2 C 0,0 km/h (0 Bft) 0,00 %
05.09.2015 01:02 14,1 C 87 % 1014,8 hPa 0,0 l/m 0,0 km/h (0 Bft) NO 43 0 min 0,000 mm 0,0 UV-I 0 W/m 12,0 C 14,1 C 0,0 km/h (0 Bft) 0,00 %
05.09.2015 01:07 14,0 C 87 % 1014,7 hPa 0,3 l/m 0,0 km/h (0 Bft) NO 44 0 min 0,000 mm 0,0 UV-I 0 W/m 11,9 C 14,0 C 0,0 km/h (0 Bft) 0,00 %
05.09.2015 01:12 13,8 C 89 % 1014,7 hPa 0,0 l/m 0,0 km/h (0 Bft) NO 43 0 min 0,000 mm 0,0 UV-I 0 W/m 12,0 C 13,8 C 0,0 km/h (0 Bft) 0,00 %
05.09.2015 01:17 13,7 C 91 % 1014,9 hPa 0,0 l/m 0,0 km/h (0 Bft) NO 46 0 min 0,000 mm 0,0 UV-I 0 W/m 12,3 C 13,7 C 0,0 km/h (0 Bft) 0,00 %
05.09.2015 01:22 13,6 C 91 % 1014,7 hPa 0,0 l/m 0,0 km/h (0 Bft) O 88 0 min 0,000 mm 0,0 UV-I 0 W/m 12,2 C 13,6 C 0,0 km/h (0 Bft) 0,00 %
05.09.2015 01:27 13,5 C 92 % 1014,6 hPa 0,0 l/m 0,0 km/h (0 Bft) O 79 0 min 0,000 mm 0,0 UV-I 0 W/m 12,2 C 13,5 C 0,0 km/h (0 Bft) 0,00 %
05.09.2015 01:32 13,4 C 92 % 1014,6 hPa 0,3 l/m 0,0 km/h (0 Bft) O 85 0 min 0,000 mm 0,0 UV-I 0 W/m 12,1 C 13,4 C 0,0 km/h (0 Bft) 0,00 %
05.09.2015 01:37 13,4 C 92 % 1014,4 hPa 0,0 l/m 0,0 km/h (0 Bft) O 84 0 min 0,000 mm 0,0 UV-I 0 W/m 12,1 C 13,4 C 0,0 km/h (0 Bft) 0,00 %
05.09.2015 01:42 13,3 C 92 % 1014,3 hPa 0,0 l/m 0,0 km/h (0 Bft) O 84 0 min 0,000 mm 0,0 UV-I 0 W/m 12,0 C 13,3 C 0,0 km/h (0 Bft) 0,00 %
05.09.2015 01:47 13,3 C 92 % 1014,3 hPa 0,0 l/m 0,0 km/h (0 Bft) O 84 0 min 0,000 mm 0,0 UV-I 0 W/m 12,0 C 13,3 C 0,0 km/h (0 Bft) 0,00 %
05.09.2015 01:52 13,2 C 93 % 1014,2 hPa 0,0 l/m 0,0 km/h (0 Bft) O-NO 60 0 min 0,000 mm 0,0 UV-I 0 W/m 12,1 C 13,2 C 0,0 km/h (0 Bft) 0,00 %
05.09.2015 01:57 13,1 C 93 % 1014,2 hPa 0,0 l/m 0,0 km/h (0 Bft) O-NO 63 0 min 0,000 mm 0,0 UV-I 0 W/m 12,0 C 13,1 C 0,0 km/h (0 Bft) 0,00 %
05.09.2015 02:02 13,1 C 93 % 1014,3 hPa 0,0 l/m 0,0 km/h (0 Bft) O-NO 59 0 min 0,000 mm 0,0 UV-I 0 W/m 12,0 C 13,1 C 0,0 km/h (0 Bft) 0,00 %
05.09.2015 02:07 13,0 C 94 % 1014,3 hPa 0,0 l/m 0,0 km/h (0 Bft) NO 47 0 min 0,000 mm 0,0 UV-I 0 W/m 12,1 C 13,0 C 0,0 km/h (0 Bft) 0,00 %
05.09.2015 02:12 13,0 C 94 % 1014,5 hPa 0,0 l/m 0,0 km/h (0 Bft) NO 48 0 min 0,000 mm 0,0 UV-I 0 W/m 12,1 C 13,0 C 0,0 km/h (0 Bft) 0,00 %
05.09.2015 02:17 13,0 C 94 % 1014,3 hPa 0,6 l/m 1,4 km/h (1 Bft) O 100 0 min 0,000 mm 0,0 UV-I 0 W/m 12,1 C 13,0 C 4,0 km/h (1 Bft) 0,00 %
05.09.2015 02:22 13,1 C 94 % 1014,2 hPa 0,0 l/m 0,0 km/h (0 Bft) NO 43 0 min 0,000 mm 0,0 UV-I 0 W/m 12,2 C 13,1 C 0,0 km/h (0 Bft) 0,00 %
05.09.2015 02:27 13,1 C 94 % 1014,5 hPa 0,0 l/m 0,0 km/h (0 Bft) O 81 0 min 0,000 mm 0,0 UV-I 0 W/m 12,2 C 13,1 C 0,0 km/h (0 Bft) 0,00 %
05.09.2015 02:32 13,1 C 96 % 1014,4 hPa 0,0 l/m 0,0 km/h (0 Bft) O 80 0 min 0,000 mm 0,0 UV-I 0 W/m 12,5 C 13,1 C 0,0 km/h (0 Bft) 0,00 %
05.09.2015 02:37 13,0 C 95 % 1014,3 hPa 0,0 l/m 0,0 km/h (0 Bft) NO 38 0 min 0,000 mm 0,0 UV-I 0 W/m 12,2 C 13,0 C 0,0 km/h (0 Bft) 0,00 %
05.09.2015 02:42 12,9 C 96 % 1014,3 hPa 0,0 l/m 0,0 km/h (0 Bft) NO 49 0 min 0,000 mm 0,0 UV-I 0 W/m 12,3 C 12,9 C 0,0 km/h (0 Bft) 0,00 %
05.09.2015 02:47 12,9 C 96 % 1014,1 hPa 0,0 l/m 0,0 km/h (0 Bft) N 355 0 min 0,000 mm 0,0 UV-I 0 W/m 12,3 C 12,9 C 0,0 km/h (0 Bft) 0,00 %
05.09.2015 02:52 12,9 C 96 % 1014,2 hPa 0,0 l/m 0,0 km/h (0 Bft) N-NO 25 0 min 0,000 mm 0,0 UV-I 0 W/m 12,3 C 12,9 C 0,0 km/h (0 Bft) 0,00 %
05.09.2015 02:57 12,8 C 97 % 1014,3 hPa 0,0 l/m 0,0 km/h (0 Bft) NO 39 0 min 0,000 mm 0,0 UV-I 0 W/m 12,3 C 12,8 C 0,0 km/h (0 Bft) 0,00 %
05.09.2015 03:02 12,8 C 97 % 1014,2 hPa 0,0 l/m 0,0 km/h (0 Bft) NO 48 0 min 0,000 mm 0,0 UV-I 0 W/m 12,3 C 12,8 C 0,0 km/h (0 Bft) 0,00 %
05.09.2015 03:07 12,8 C 97 % 1014,3 hPa 0,0 l/m 0,0 km/h (0 Bft) NO 52 0 min 0,000 mm 0,0 UV-I 0 W/m 12,3 C 12,8 C 0,0 km/h (0 Bft) 0,00 %
05.09.2015 03:12 12,7 C 97 % 1014,2 hPa 0,0 l/m 0,0 km/h (0 Bft) NO 48 0 min 0,000 mm 0,0 UV-I 0 W/m 12,2 C 12,7 C 0,0 km/h (0 Bft) 0,00 %
05.09.2015 03:17 12,7 C 97 % 1014,3 hPa 0,0 l/m 0,0 km/h (0 Bft) NO 44 0 min 0,000 mm 0,0 UV-I 0 W/m 12,2 C 12,7 C 0,0 km/h (0 Bft) 0,00 %
05.09.2015 03:22 12,7 C 97 % 1014,4 hPa 0,0 l/m 0,0 km/h (0 Bft) NO 44 0 min 0,000 mm 0,0 UV-I 0 W/m 12,2 C 12,7 C 0,0 km/h (0 Bft) 0,00 %
05.09.2015 03:27 12,7 C 97 % 1014,2 hPa 0,0 l/m 0,0 km/h (0 Bft) NO 39 0 min 0,000 mm 0,0 UV-I 0 W/m 12,2 C 12,7 C 0,0 km/h (0 Bft) 0,00 %
05.09.2015 03:32 12,7 C 97 % 1014,0 hPa 0,0 l/m 0,0 km/h (0 Bft) NO 44 0 min 0,000 mm 0,0 UV-I 0 W/m 12,2 C 12,7 C 0,0 km/h (0 Bft) 0,00 %
05.09.2015 03:37 12,7 C 98 % 1014,3 hPa 0,0 l/m 0,0 km/h (0 Bft) NO 45 0 min 0,000 mm 0,0 UV-I 0 W/m 12,4 C 12,7 C 0,0 km/h (0 Bft) 0,00 %
05.09.2015 03:42 12,7 C 98 % 1014,2 hPa 0,0 l/m 0,0 km/h (0 Bft) NO 42 0 min 0,000 mm 0,0 UV-I 0 W/m 12,4 C 12,7 C 0,0 km/h (0 Bft) 0,00 %
05.09.2015 03:47 12,7 C 98 % 1014,2 hPa 0,0 l/m 0,0 km/h (0 Bft) N-NW 338 0 min 0,000 mm 0,0 UV-I 0 W/m 12,4 C 12,7 C 0,0 km/h (0 Bft) 0,00 %
05.09.2015 03:52 12,8 C 98 % 1014,3 hPa 0,0 l/m 0,0 km/h (0 Bft) N-NW 338 0 min 0,000 mm 0,0 UV-I 0 W/m 12,5 C 12,8 C 0,0 km/h (0 Bft) 0,00 %
05.09.2015 03:57 12,8 C 98 % 1014,1 hPa 0,0 l/m 0,0 km/h (0 Bft) NO 49 0 min 0,000 mm 0,0 UV-I 0 W/m 12,5 C 12,8 C 0,0 km/h (0 Bft) 0,00 %
05.09.2015 04:02 12,7 C 98 % 1014,0 hPa 0,0 l/m 0,0 km/h (0 Bft) NO 49 0 min 0,000 mm 0,0 UV-I 0 W/m 12,4 C 12,7 C 0,0 km/h (0 Bft) 0,00 %
05.09.2015 04:07 12,7 C 98 % 1014,1 hPa 0,0 l/m 0,0 km/h (0 Bft) NO 44 0 min 0,000 mm 0,0 UV-I 0 W/m 12,4 C 12,7 C 0,0 km/h (0 Bft) 0,00 %
05.09.2015 04:12 12,6 C 98 % 1014,1 hPa 0,0 l/m 0,0 km/h (0 Bft) NO 49 0 min 0,000 mm 0,0 UV-I 0 W/m 12,3 C 12,6 C 0,0 km/h (0 Bft) 0,00 %
05.09.2015 04:17 12,5 C 98 % 1013,9 hPa 0,0 l/m 0,0 km/h (0 Bft) NO 44 0 min 0,000 mm 0,0 UV-I 0 W/m 12,2 C 12,5 C 0,0 km/h (0 Bft) 0,00 %
05.09.2015 04:22 12,4 C 98 % 1014,0 hPa 0,0 l/m 0,0 km/h (0 Bft) NO 44 0 min 0,000 mm 0,0 UV-I 0 W/m 12,1 C 12,4 C 0,0 km/h (0 Bft) 0,00 %
05.09.2015 04:27 12,3 C 99 % 1013,9 hPa 0,0 l/m 0,0 km/h (0 Bft) NO 44 0 min 0,000 mm 0,0 UV-I 0 W/m 12,1 C 12,3 C 0,0 km/h (0 Bft) 0,00 %
05.09.2015 04:32 12,3 C 99 % 1013,7 hPa 0,0 l/m 0,0 km/h (0 Bft) NO 45 0 min 0,000 mm 0,0 UV-I 0 W/m 12,1 C 12,3 C 0,0 km/h (0 Bft) 0,00 %
05.09.2015 04:37 12,3 C 99 % 1013,7 hPa 0,0 l/m 0,0 km/h (0 Bft) NO 43 0 min 0,000 mm 0,0 UV-I 0 W/m 12,1 C 12,3 C 0,0 km/h (0 Bft) 0,00 %
05.09.2015 04:42 12,3 C 99 % 1013,8 hPa 0,0 l/m 0,0 km/h (0 Bft) NO 36 0 min 0,000 mm 0,0 UV-I 0 W/m 12,1 C 12,3 C 0,0 km/h (0 Bft) 0,00 %
05.09.2015 04:47 12,3 C 99 % 1013,6 hPa 0,0 l/m 0,0 km/h (0 Bft) N 359 0 min 0,000 mm 0,0 UV-I 0 W/m 12,1 C 12,3 C 0,0 km/h (0 Bft) 0,00 %
05.09.2015 04:52 12,3 C 99 % 1013,5 hPa 0,0 l/m 0,0 km/h (0 Bft) NO 50 0 min 0,000 mm 0,0 UV-I 0 W/m 12,1 C 12,3 C 0,0 km/h (0 Bft) 0,00 %
05.09.2015 04:57 12,3 C 99 % 1013,6 hPa 0,0 l/m 0,0 km/h (0 Bft) NO 50 0 min 0,000 mm 0,0 UV-I 0 W/m 12,1 C 12,3 C 0,0 km/h (0 Bft) 0,00 %
05.09.2015 05:02 12,3 C 99 % 1013,6 hPa 0,0 l/m 0,0 km/h (0 Bft) N 354 0 min 0,000 mm 0,0 UV-I 0 W/m 12,1 C 12,3 C 0,0 km/h (0 Bft) 0,00 %
05.09.2015 05:07 12,3 C 99 % 1013,5 hPa 0,0 l/m 0,0 km/h (0 Bft) N 354 0 min 0,000 mm 0,0 UV-I 0 W/m 12,1 C 12,3 C 0,0 km/h (0 Bft) 0,00 %
05.09.2015 05:12 12,3 C 99 % 1013,5 hPa 0,0 l/m 0,0 km/h (0 Bft) N 354 0 min 0,000 mm 0,0 UV-I 0 W/m 12,1 C 12,3 C 0,0 km/h (0 Bft) 0,00 %
05.09.2015 05:17 12,3 C 99 % 1013,5 hPa 0,0 l/m 0,0 km/h (0 Bft) N 354 0 min 0,000 mm 0,0 UV-I 0 W/m 12,1 C 12,3 C 0,0 km/h (0 Bft) 0,00 %
05.09.2015 05:22 12,3 C 99 % 1013,5 hPa 0,0 l/m 0,0 km/h (0 Bft) N 354 0 min 0,000 mm 0,0 UV-I 0 W/m 12,1 C 12,3 C 0,0 km/h (0 Bft) 0,00 %
05.09.2015 05:27 12,3 C 99 % 1013,4 hPa 0,0 l/m 0,0 km/h (0 Bft) N 354 0 min 0,000 mm 0,0 UV-I 0 W/m 12,1 C 12,3 C 0,0 km/h (0 Bft) 0,00 %
05.09.2015 05:32 12,3 C 99 % 1013,4 hPa 0,0 l/m 0,0 km/h (0 Bft) N 354 0 min 0,000 mm 0,0 UV-I 0 W/m 12,1 C 12,3 C 0,0 km/h (0 Bft) 0,00 %
05.09.2015 05:37 12,3 C 99 % 1013,4 hPa 0,0 l/m 0,0 km/h (0 Bft) O-NO 66 0 min 0,000 mm 0,0 UV-I 0 W/m 12,1 C 12,3 C 0,0 km/h (0 Bft) 0,00 %
05.09.2015 05:42 12,2 C 99 % 1013,5 hPa 0,0 l/m 0,0 km/h (0 Bft) O-NO 66 0 min 0,000 mm 0,0 UV-I 0 W/m 12,0 C 12,2 C 0,0 km/h (0 Bft) 0,00 %
05.09.2015 05:47 12,2 C 99 % 1013,6 hPa 0,0 l/m 0,0 km/h (0 Bft) O-NO 66 0 min 0,000 mm 0,0 UV-I 0 W/m 12,0 C 12,2 C 0,0 km/h (0 Bft) 0,00 %
05.09.2015 05:52 12,1 C 99 % 1013,3 hPa 0,0 l/m 0,0 km/h (0 Bft) O-NO 66 0 min 0,000 mm 0,0 UV-I 0 W/m 11,9 C 12,1 C 0,0 km/h (0 Bft) 0,00 %
05.09.2015 05:57 12,0 C 99 % 1013,4 hPa 0,0 l/m 0,0 km/h (0 Bft) O-NO 66 0 min 0,000 mm 0,0 UV-I 0 W/m 11,8 C 12,0 C 0,0 km/h (0 Bft) 0,00 %
05.09.2015 06:02 12,0 C 99 % 1013,4 hPa 0,0 l/m 0,0 km/h (0 Bft) O-NO 66 0 min 0,000 mm 0,0 UV-I 0 W/m 11,8 C 12,0 C 0,0 km/h (0 Bft) 0,00 %
05.09.2015 06:07 12,0 C 99 % 1013,5 hPa 0,0 l/m 0,0 km/h (0 Bft) O-NO 66 0 min 0,000 mm 0,0 UV-I 0 W/m 11,8 C 12,0 C 0,0 km/h (0 Bft) 0,00 %
05.09.2015 06:12 12,0 C 99 % 1013,5 hPa 0,0 l/m 0,0 km/h (0 Bft) O-NO 66 0 min 0,000 mm 0,0 UV-I 0 W/m 11,8 C 12,0 C 0,0 km/h (0 Bft) 0,00 %
05.09.2015 06:17 12,0 C 99 % 1013,7 hPa 0,0 l/m 0,0 km/h (0 Bft) O-NO 66 0 min 0,000 mm 0,0 UV-I 0 W/m 11,8 C 12,0 C 0,0 km/h (0 Bft) 0,00 %
05.09.2015 06:22 12,0 C 99 % 1013,7 hPa 0,0 l/m 0,0 km/h (0 Bft) O-NO 63 0 min 0,000 mm 0,0 UV-I 0 W/m 11,8 C 12,0 C 0,0 km/h (0 Bft) 0,00 %
05.09.2015 06:27 12,0 C 99 % 1013,6 hPa 0,0 l/m 0,0 km/h (0 Bft) O-NO 63 0 min 0,000 mm 0,0 UV-I 0 W/m 11,8 C 12,0 C 0,0 km/h (0 Bft) 0,00 %
05.09.2015 06:32 12,1 C 99 % 1013,7 hPa 0,0 l/m 0,0 km/h (0 Bft) O-NO 63 0 min 0,000 mm 0,0 UV-I 0 W/m 11,9 C 12,1 C 0,0 km/h (0 Bft) 0,00 %
05.09.2015 06:37 12,1 C 99 % 1013,7 hPa 0,0 l/m 0,0 km/h (0 Bft) O-NO 61 0 min 0,000 mm 0,0 UV-I 0 W/m 11,9 C 12,1 C 0,0 km/h (0 Bft) 0,00 %
05.09.2015 06:42 12,1 C 99 % 1014,0 hPa 0,0 l/m 0,0 km/h (0 Bft) O-NO 61 0 min 0,000 mm 0,0 UV-I 0 W/m 11,9 C 12,1 C 0,0 km/h (0 Bft) 0,00 %
05.09.2015 06:47 12,2 C 99 % 1014,0 hPa 0,0 l/m 0,0 km/h (0 Bft) O-NO 61 0 min 0,000 mm 0,0 UV-I 0 W/m 12,0 C 12,2 C 0,0 km/h (0 Bft) 0,00 %
05.09.2015 06:52 12,2 C 99 % 1014,0 hPa 0,3 l/m 0,0 km/h (0 Bft) N 356 0 min 0,000 mm 0,0 UV-I 0 W/m 12,0 C 12,2 C 0,0 km/h (0 Bft) 0,00 %
05.09.2015 06:57 12,3 C 99 % 1013,9 hPa 0,0 l/m 0,0 km/h (0 Bft) N 356 0 min 0,000 mm 0,0 UV-I 2 W/m 12,1 C 12,3 C 0,0 km/h (0 Bft) 0,00 %
05.09.2015 07:02 12,4 C 99 % 1014,0 hPa 0,0 l/m 0,0 km/h (0 Bft) N 356 0 min 0,000 mm 0,0 UV-I 5 W/m 12,2 C 12,4 C 0,0 km/h (0 Bft) 0,00 %
05.09.2015 07:07 12,4 C 99 % 1013,8 hPa 0,0 l/m 0,0 km/h (0 Bft) N 356 0 min 0,000 mm 0,0 UV-I 10 W/m 12,2 C 12,4 C 0,0 km/h (0 Bft) 0,00 %
05.09.2015 07:12 12,4 C 99 % 1014,1 hPa 0,0 l/m 0,0 km/h (0 Bft) N 356 0 min 0,000 mm 0,0 UV-I 21 W/m 12,2 C 12,4 C 0,0 km/h (0 Bft) 0,00 %
05.09.2015 07:17 12,5 C 99 % 1014,1 hPa 0,0 l/m 0,0 km/h (0 Bft) N 356 0 min 0,000 mm 0,0 UV-I 22 W/m 12,3 C 12,5 C 0,0 km/h (0 Bft) 0,00 %
05.09.2015 07:22 12,5 C 99 % 1014,0 hPa 0,0 l/m 0,0 km/h (0 Bft) N 356 0 min 0,000 mm 0,0 UV-I 23 W/m 12,3 C 12,5 C 0,0 km/h (0 Bft) 0,00 %
05.09.2015 07:27 12,6 C 99 % 1013,9 hPa 0,0 l/m 0,0 km/h (0 Bft) N 356 0 min 0,000 mm 0,0 UV-I 26 W/m 12,4 C 12,6 C 0,0 km/h (0 Bft) 0,00 %
05.09.2015 07:32 12,6 C 99 % 1014,0 hPa 0,0 l/m 0,0 km/h (0 Bft) N 356 0 min 0,000 mm 0,0 UV-I 28 W/m 12,4 C 12,6 C 0,0 km/h (0 Bft) 0,00 %
05.09.2015 07:37 12,6 C 99 % 1014,2 hPa 0,0 l/m 0,0 km/h (0 Bft) N 355 0 min 0,000 mm 0,0 UV-I 27 W/m 12,4 C 12,6 C 0,0 km/h (0 Bft) 0,00 %
05.09.2015 07:42 12,6 C 99 % 1014,1 hPa 0,0 l/m 0,0 km/h (0 Bft) N 350 0 min 0,000 mm 0,0 UV-I 30 W/m 12,4 C 12,6 C 0,0 km/h (0 Bft) 0,00 %
05.09.2015 07:47 12,7 C 99 % 1014,1 hPa 0,0 l/m 0,0 km/h (0 Bft) NW 307 0 min 0,000 mm 0,0 UV-I 30 W/m 12,5 C 12,7 C 0,0 km/h (0 Bft) 0,00 %
05.09.2015 07:52 12,7 C 99 % 1014,2 hPa 0,0 l/m 0,0 km/h (0 Bft) NO 41 0 min 0,000 mm 0,0 UV-I 33 W/m 12,5 C 12,7 C 0,0 km/h (0 Bft) 0,00 %
05.09.2015 07:57 12,7 C 99 % 1014,3 hPa 0,0 l/m 0,0 km/h (0 Bft) NO 50 0 min 0,000 mm 0,0 UV-I 39 W/m 12,5 C 12,7 C 0,0 km/h (0 Bft) 0,00 %
05.09.2015 08:02 12,7 C 99 % 1014,2 hPa 0,0 l/m 0,0 km/h (0 Bft) NO 45 0 min 0,000 mm 0,0 UV-I 50 W/m 12,5 C 12,7 C 0,0 km/h (0 Bft) 0,00 %
05.09.2015 08:07 12,8 C 99 % 1014,3 hPa 0,0 l/m 0,0 km/h (0 Bft) N 350 0 min 0,000 mm 0,0 UV-I 73 W/m 12,6 C 12,8 C 0,0 km/h (0 Bft) 0,00 %
05.09.2015 08:12 12,8 C 99 % 1014,3 hPa 0,3 l/m 0,0 km/h (0 Bft) NO 42 0 min 0,000 mm 0,0 UV-I 77 W/m 12,6 C 12,8 C 0,0 km/h (0 Bft) 0,00 %
05.09.2015 08:17 12,9 C 99 % 1014,3 hPa 0,0 l/m 0,0 km/h (0 Bft) NO 46 0 min 0,000 mm 0,0 UV-I 81 W/m 12,7 C 12,9 C 0,0 km/h (0 Bft) 0,00 %
05.09.2015 08:22 13,0 C 99 % 1014,3 hPa 0,0 l/m 0,0 km/h (0 Bft) NO 48 0 min 0,000 mm 0,0 UV-I 90 W/m 12,8 C 13,0 C 0,0 km/h (0 Bft) 0,00 %
05.09.2015 08:27 13,1 C 99 % 1014,4 hPa 0,0 l/m 0,0 km/h (0 Bft) NO 44 0 min 0,000 mm 0,0 UV-I 87 W/m 12,9 C 13,1 C 0,0 km/h (0 Bft) 0,00 %
05.09.2015 08:32 13,2 C 99 % 1013,7 hPa 0,0 l/m 0,0 km/h (0 Bft) N-NO 27 0 min 0,000 mm 0,0 UV-I 87 W/m 13,0 C 13,2 C 0,0 km/h (0 Bft) 0,00 %
05.09.2015 08:37 13,2 C 99 % 1014,0 hPa 0,0 l/m 0,0 km/h (0 Bft) N-NO 24 0 min 0,000 mm 0,0 UV-I 74 W/m 13,0 C 13,2 C 0,0 km/h (0 Bft) 0,00 %
05.09.2015 08:42 13,2 C 99 % 1014,1 hPa 0,0 l/m 0,0 km/h (0 Bft) NO 51 0 min 0,000 mm 0,0 UV-I 81 W/m 13,0 C 13,2 C 0,0 km/h (0 Bft) 0,00 %
05.09.2015 08:47 13,2 C 99 % 1014,2 hPa 0,0 l/m 0,0 km/h (0 Bft) N-NO 26 0 min 0,000 mm 0,0 UV-I 86 W/m 13,0 C 13,2 C 0,0 km/h (0 Bft) 0,00 %
05.09.2015 08:52 13,2 C 99 % 1014,0 hPa 0,0 l/m 0,0 km/h (0 Bft) W-NW 301 0 min 0,000 mm 0,0 UV-I 89 W/m 13,0 C 13,2 C 0,0 km/h (0 Bft) 0,00 %
05.09.2015 08:57 13,3 C 99 % 1014,0 hPa 0,0 l/m 2,2 km/h (1 Bft) W-NW 294 0 min 0,000 mm 0,0 UV-I 88 W/m 13,1 C 13,3 C 4,0 km/h (1 Bft) 0,00 %
05.09.2015 09:02 13,2 C 99 % 1014,2 hPa 0,0 l/m 0,0 km/h (0 Bft) N-NO 31 0 min 0,000 mm 0,0 UV-I 91 W/m 13,0 C 13,2 C 0,0 km/h (0 Bft) 0,00 %
05.09.2015 09:07 13,2 C 99 % 1014,2 hPa 0,3 l/m 0,0 km/h (0 Bft) NW 307 0 min 0,000 mm 0,0 UV-I 90 W/m 13,0 C 13,2 C 0,0 km/h (0 Bft) 0,00 %
05.09.2015 09:12 13,2 C 99 % 1014,3 hPa 0,0 l/m 0,0 km/h (0 Bft) N-NO 22 0 min 0,000 mm 0,0 UV-I 75 W/m 13,0 C 13,2 C 0,0 km/h (0 Bft) 0,00 %
05.09.2015 09:17 13,1 C 98 % 1014,5 hPa 0,0 l/m 0,0 km/h (0 Bft) N-NO 24 0 min 0,000 mm 0,0 UV-I 59 W/m 12,8 C 13,1 C 0,0 km/h (0 Bft) 0,00 %
05.09.2015 09:22 13,1 C 98 % 1014,3 hPa 0,0 l/m 0,0 km/h (0 Bft) N 356 0 min 0,000 mm 0,0 UV-I 47 W/m 12,8 C 13,1 C 0,0 km/h (0 Bft) 0,00 %
05.09.2015 09:27 13,0 C 99 % 1014,7 hPa 0,0 l/m 0,4 km/h (0 Bft) W-NW 295 0 min 0,000 mm 0,0 UV-I 36 W/m 12,8 C 13,0 C 4,0 km/h (1 Bft) 0,00 %
05.09.2015 09:32 12,9 C 99 % 1014,8 hPa 0,3 l/m 0,0 km/h (0 Bft) N 354 0 min 0,000 mm 0,0 UV-I 35 W/m 12,7 C 12,9 C 0,0 km/h (0 Bft) 0,00 %
05.09.2015 09:37 12,9 C 99 % 1014,7 hPa 0,3 l/m 0,0 km/h (0 Bft) NO 36 0 min 0,000 mm 0,0 UV-I 34 W/m 12,7 C 12,9 C 0,0 km/h (0 Bft) 0,00 %
05.09.2015 09:42 12,8 C 99 % 1015,0 hPa 0,3 l/m 0,0 km/h (0 Bft) NO 41 0 min 0,000 mm 0,0 UV-I 32 W/m 12,6 C 12,8 C 0,0 km/h (0 Bft) 0,00 %
05.09.2015 09:47 12,8 C 99 % 1015,1 hPa 0,3 l/m 0,0 km/h (0 Bft) S-SW 200 0 min 0,000 mm 0,0 UV-I 30 W/m 12,6 C 12,8 C 0,0 km/h (0 Bft) 0,00 %
05.09.2015 09:52 12,8 C 99 % 1015,1 hPa 0,6 l/m 1,4 km/h (1 Bft) N-NW 348 0 min 0,000 mm 0,0 UV-I 31 W/m 12,6 C 12,8 C 4,0 km/h (1 Bft) 0,00 %
05.09.2015 09:57 12,8 C 99 % 1015,1 hPa 0,3 l/m 0,0 km/h (0 Bft) O-NO 61 0 min 0,000 mm 0,0 UV-I 27 W/m 12,6 C 12,8 C 0,0 km/h (0 Bft) 0,00 %
05.09.2015 10:02 12,8 C 99 % 1015,6 hPa 0,3 l/m 0,4 km/h (0 Bft) N 355 0 min 0,000 mm 0,0 UV-I 6 W/m 12,6 C 12,8 C 4,0 km/h (1 Bft) 0,00 %
05.09.2015 10:07 12,7 C 98 % 1015,1 hPa 0,6 l/m 2,2 km/h (1 Bft) NW 308 0 min 0,000 mm 0,0 UV-I 55 W/m 12,4 C 12,7 C 4,0 km/h (1 Bft) 0,00 %
05.09.2015 10:12 12,3 C 97 % 1015,2 hPa 0,3 l/m 4,7 km/h (1 Bft) S-SW 192 0 min 0,000 mm 0,0 UV-I 57 W/m 11,8 C 12,3 C 7,9 km/h (2 Bft) 0,00 %
05.09.2015 10:17 11,8 C 97 % 1015,5 hPa 0,6 l/m 1,8 km/h (1 Bft) N 350 0 min 0,000 mm 0,0 UV-I 55 W/m 11,3 C 11,8 C 4,0 km/h (1 Bft) 0,00 %
05.09.2015 10:22 11,4 C 97 % 1015,5 hPa 0,3 l/m 2,9 km/h (1 Bft) W-SW 255 0 min 0,000 mm 0,0 UV-I 71 W/m 10,9 C 11,4 C 7,9 km/h (2 Bft) 0,00 %
05.09.2015 10:27 11,3 C 97 % 1015,4 hPa 0,3 l/m 4,3 km/h (1 Bft) S-SW 212 0 min 0,000 mm 0,0 UV-I 78 W/m 10,8 C 11,3 C 7,9 km/h (2 Bft) 0,00 %
05.09.2015 10:32 11,3 C 97 % 1015,4 hPa 0,3 l/m 0,4 km/h (0 Bft) S 190 0 min 0,000 mm 0,0 UV-I 90 W/m 10,8 C 11,3 C 4,0 km/h (1 Bft) 0,00 %
05.09.2015 10:37 11,3 C 97 % 1015,4 hPa 0,3 l/m 5,4 km/h (1 Bft) NW 312 0 min 0,000 mm 1,0 UV-I 106 W/m 10,8 C 11,3 C 7,9 km/h (2 Bft) 0,00 %
05.09.2015 10:42 11,3 C 97 % 1015,3 hPa 0,0 l/m 1,8 km/h (1 Bft) W-NW 285 0 min 0,000 mm 1,0 UV-I 119 W/m 10,8 C 11,3 C 4,0 km/h (1 Bft) 0,00 %
05.09.2015 10:47 11,2 C 97 % 1015,1 hPa 0,0 l/m 0,0 km/h (0 Bft) N 355 0 min 0,000 mm 1,0 UV-I 122 W/m 10,7 C 11,2 C 0,0 km/h (0 Bft) 0,00 %
05.09.2015 10:52 11,3 C 97 % 1015,2 hPa 0,0 l/m 2,2 km/h (1 Bft) NW 304 0 min 0,000 mm 1,0 UV-I 100 W/m 10,8 C 11,3 C 7,9 km/h (2 Bft) 0,00 %
05.09.2015 10:57 11,2 C 97 % 1015,2 hPa 0,0 l/m 0,0 km/h (0 Bft) O-NO 75 0 min 0,000 mm 1,0 UV-I 111 W/m 10,7 C 11,2 C 0,0 km/h (0 Bft) 0,00 %
05.09.2015 11:02 11,2 C 97 % 1015,3 hPa 0,0 l/m 0,7 km/h (0 Bft) NW 307 0 min 0,000 mm 1,0 UV-I 108 W/m 10,7 C 11,2 C 4,0 km/h (1 Bft) 0,00 %
05.09.2015 11:07 11,2 C 96 % 1015,4 hPa 0,0 l/m 4,7 km/h (1 Bft) SW 231 0 min 0,000 mm 1,0 UV-I 118 W/m 10,6 C 11,2 C 7,9 km/h (2 Bft) 0,00 %
05.09.2015 11:12 11,2 C 96 % 1015,3 hPa 0,3 l/m 3,2 km/h (1 Bft) SW 221 0 min 0,000 mm 1,0 UV-I 103 W/m 10,6 C 11,2 C 7,9 km/h (2 Bft) 0,00 %
05.09.2015 11:17 11,1 C 95 % 1015,4 hPa 0,0 l/m 2,2 km/h (1 Bft) NO 47 0 min 0,000 mm 0,0 UV-I 83 W/m 10,3 C 11,1 C 4,0 km/h (1 Bft) 0,00 %
05.09.2015 11:22 11,1 C 95 % 1015,3 hPa 0,0 l/m 0,4 km/h (0 Bft) N 351 0 min 0,000 mm 1,0 UV-I 106 W/m 10,3 C 11,1 C 4,0 km/h (1 Bft) 0,00 %
05.09.2015 11:27 11,1 C 95 % 1015,2 hPa 0,0 l/m 0,7 km/h (0 Bft) O 94 0 min 0,000 mm 1,0 UV-I 151 W/m 10,3 C 11,1 C 4,0 km/h (1 Bft) 0,00 %
05.09.2015 11:32 11,2 C 95 % 1015,4 hPa 0,0 l/m 5,4 km/h (1 Bft) S-SW 209 0 min 0,000 mm 1,0 UV-I 169 W/m 10,4 C 11,2 C 11,9 km/h (2 Bft) 0,00 %
05.09.2015 11:37 11,2 C 94 % 1015,3 hPa 0,0 l/m 6,5 km/h (2 Bft) W-SW 256 0 min 0,000 mm 1,0 UV-I 204 W/m 10,3 C 11,2 C 7,9 km/h (2 Bft) 0,00 %
05.09.2015 11:42 11,2 C 94 % 1015,2 hPa 0,0 l/m 4,0 km/h (1 Bft) N-NW 348 0 min 0,000 mm 1,0 UV-I 206 W/m 10,3 C 11,2 C 7,9 km/h (2 Bft) 0,00 %
05.09.2015 11:48 11,2 C 93 % 1015,3 hPa 0,0 l/m 1,4 km/h (1 Bft) W 277 0 min 0,000 mm 1,0 UV-I 228 W/m 10,1 C 11,2 C 4,0 km/h (1 Bft) 0,00 %
05.09.2015 11:53 11,3 C 92 % 1015,3 hPa 0,0 l/m 4,3 km/h (1 Bft) N-NO 32 0 min 0,000 mm 1,0 UV-I 237 W/m 10,0 C 11,3 C 7,9 km/h (2 Bft) 0,00 %
05.09.2015 11:58 11,4 C 92 % 1015,0 hPa 0,0 l/m 2,9 km/h (1 Bft) W-NW 287 0 min 0,000 mm 1,0 UV-I 251 W/m 10,1 C 11,4 C 4,0 km/h (1 Bft) 0,00 %
05.09.2015 12:03 11,6 C 91 % 1015,2 hPa 0,0 l/m 11,5 km/h (2 Bft) W-SW 249 0 min 0,000 mm 1,0 UV-I 277 W/m 10,2 C 8,6 C 19,8 km/h (3 Bft) 0,00 %
05.09.2015 12:08 11,7 C 90 % 1015,2 hPa 0,0 l/m 2,9 km/h (1 Bft) S 172 0 min 0,000 mm 1,0 UV-I 272 W/m 10,1 C 11,7 C 4,0 km/h (1 Bft) 0,00 %
05.09.2015 12:13 11,7 C 89 % 1015,3 hPa 0,0 l/m 8,3 km/h (2 Bft) NW 323 0 min 0,000 mm 1,0 UV-I 226 W/m 9,9 C 10,5 C 11,9 km/h (2 Bft) 0,00 %
05.09.2015 12:18 11,7 C 88 % 1015,0 hPa 0,0 l/m 4,0 km/h (1 Bft) N-NO 15 0 min 0,000 mm 1,0 UV-I 237 W/m 9,8 C 11,7 C 7,9 km/h (2 Bft) 0,00 %
05.09.2015 12:23 11,6 C 86 % 1015,5 hPa 0,0 l/m 4,3 km/h (1 Bft) W-SW 256 0 min 0,000 mm 1,0 UV-I 226 W/m 9,3 C 11,6 C 7,9 km/h (2 Bft) 0,00 %
05.09.2015 12:28 11,5 C 85 % 1015,4 hPa 0,0 l/m 0,0 km/h (0 Bft) O-NO 62 0 min 0,000 mm 1,0 UV-I 175 W/m 9,1 C 11,5 C 0,0 km/h (0 Bft) 0,00 %
05.09.2015 12:33 11,5 C 85 % 1015,3 hPa 0,0 l/m 2,2 km/h (1 Bft) NO 40 0 min 0,000 mm 1,0 UV-I 183 W/m 9,1 C 11,5 C 4,0 km/h (1 Bft) 0,00 %
05.09.2015 12:38 11,5 C 85 % 1015,0 hPa 0,0 l/m 0,4 km/h (0 Bft) S 173 0 min 0,000 mm 1,0 UV-I 242 W/m 9,1 C 11,5 C 4,0 km/h (1 Bft) 0,00 %
05.09.2015 12:43 11,6 C 86 % 1015,2 hPa 0,0 l/m 0,0 km/h (0 Bft) NW 321 0 min 0,000 mm 1,0 UV-I 307 W/m 9,3 C 11,6 C 0,0 km/h (0 Bft) 0,00 %
05.09.2015 12:48 11,8 C 84 % 1015,3 hPa 0,0 l/m 0,4 km/h (0 Bft) N 352 0 min 0,000 mm 1,0 UV-I 223 W/m 9,2 C 11,8 C 4,0 km/h (1 Bft) 0,00 %
05.09.2015 12:53 11,9 C 84 % 1015,3 hPa 0,0 l/m 7,9 km/h (2 Bft) W-SW 251 0 min 0,000 mm 1,0 UV-I 244 W/m 9,3 C 10,9 C 15,8 km/h (3 Bft) 0,00 %
05.09.2015 12:58 12,0 C 84 % 1015,2 hPa 0,0 l/m 1,8 km/h (1 Bft) SW 231 0 min 0,000 mm 1,0 UV-I 226 W/m 9,4 C 12,0 C 4,0 km/h (1 Bft) 0,00 %
05.09.2015 13:03 12,1 C 84 % 1015,2 hPa 0,0 l/m 1,4 km/h (1 Bft) SW 229 0 min 0,000 mm 1,0 UV-I 198 W/m 9,5 C 12,1 C 4,0 km/h (1 Bft) 0,00 %
05.09.2015 13:08 12,2 C 83 % 1015,1 hPa 0,0 l/m 4,0 km/h (1 Bft) NO 48 0 min 0,000 mm 1,0 UV-I 232 W/m 9,4 C 12,2 C 7,9 km/h (2 Bft) 0,00 %
05.09.2015 13:13 12,2 C 83 % 1014,8 hPa 0,0 l/m 1,4 km/h (1 Bft) N-NO 23 0 min 0,000 mm 1,0 UV-I 248 W/m 9,4 C 12,2 C 4,0 km/h (1 Bft) 0,00 %
05.09.2015 13:18 12,3 C 83 % 1015,1 hPa 0,0 l/m 0,0 km/h (0 Bft) O-NO 74 0 min 0,000 mm 1,0 UV-I 212 W/m 9,5 C 12,3 C 0,0 km/h (0 Bft) 0,00 %
05.09.2015 13:23 12,4 C 83 % 1015,1 hPa 0,0 l/m 0,0 km/h (0 Bft) NO 38 0 min 0,000 mm 1,0 UV-I 224 W/m 9,6 C 12,4 C 0,0 km/h (0 Bft) 0,00 %
05.09.2015 13:28 12,5 C 83 % 1015,0 hPa 0,0 l/m 1,8 km/h (1 Bft) NO 41 0 min 0,000 mm 1,0 UV-I 256 W/m 9,7 C 12,5 C 4,0 km/h (1 Bft) 0,00 %
05.09.2015 13:33 12,7 C 82 % 1015,0 hPa 0,0 l/m 4,0 km/h (1 Bft) W-NW 301 0 min 0,000 mm 1,0 UV-I 286 W/m 9,7 C 12,7 C 7,9 km/h (2 Bft) 0,00 %
05.09.2015 13:38 12,8 C 81 % 1015,0 hPa 0,0 l/m 4,3 km/h (1 Bft) W-SW 251 0 min 0,000 mm 1,0 UV-I 289 W/m 9,6 C 12,8 C 7,9 km/h (2 Bft) 0,00 %
05.09.2015 13:43 13,0 C 80 % 1014,9 hPa 0,0 l/m 4,7 km/h (1 Bft) N-NW 335 0 min 0,000 mm 1,0 UV-I 268 W/m 9,6 C 13,0 C 11,9 km/h (2 Bft) 0,00 %
05.09.2015 13:48 13,0 C 79 % 1014,9 hPa 0,0 l/m 0,0 km/h (0 Bft) O-NO 73 0 min 0,000 mm 1,0 UV-I 283 W/m 9,4 C 13,0 C 0,0 km/h (0 Bft) 0,00 %
05.09.2015 13:53 13,0 C 80 % 1015,0 hPa 0,0 l/m 0,7 km/h (0 Bft) N-NW 327 0 min 0,000 mm 2,0 UV-I 337 W/m 9,6 C 13,0 C 4,0 km/h (1 Bft) 0,00 %
05.09.2015 13:58 13,2 C 78 % 1015,0 hPa 0,0 l/m 5,4 km/h (1 Bft) S-SW 210 0 min 0,000 mm 2,0 UV-I 340 W/m 9,4 C 13,2 C 11,9 km/h (2 Bft) 0,00 %
05.09.2015 14:03 13,4 C 78 % 1015,1 hPa 0,0 l/m 0,7 km/h (0 Bft) N-NO 30 0 min 0,000 mm 1,0 UV-I 242 W/m 9,6 C 13,4 C 4,0 km/h (1 Bft) 0,00 %
05.09.2015 14:08 13,6 C 75 % 1014,9 hPa 0,0 l/m 10,4 km/h (2 Bft) W-SW 255 0 min 0,000 mm 1,0 UV-I 250 W/m 9,3 C 11,4 C 11,9 km/h (2 Bft) 0,00 %
05.09.2015 14:13 13,4 C 75 % 1015,3 hPa 0,0 l/m 4,7 km/h (1 Bft) O 101 0 min 0,000 mm 1,0 UV-I 265 W/m 9,1 C 13,4 C 7,9 km/h (2 Bft) 0,00 %
05.09.2015 14:18 13,3 C 75 % 1015,1 hPa 0,0 l/m 0,7 km/h (0 Bft) N-NW 346 0 min 0,000 mm 1,0 UV-I 216 W/m 9,0 C 13,3 C 4,0 km/h (1 Bft) 0,00 %
05.09.2015 14:23 13,2 C 77 % 1015,2 hPa 0,0 l/m 2,9 km/h (1 Bft) W 280 0 min 0,000 mm 1,0 UV-I 159 W/m 9,3 C 13,2 C 4,0 km/h (1 Bft) 0,00 %
05.09.2015 14:28 13,2 C 78 % 1015,0 hPa 0,0 l/m 3,2 km/h (1 Bft) W-SW 252 0 min 0,000 mm 1,0 UV-I 208 W/m 9,4 C 13,2 C 4,0 km/h (1 Bft) 0,00 %
05.09.2015 14:33 13,3 C 76 % 1015,1 hPa 0,0 l/m 2,2 km/h (1 Bft) N 354 0 min 0,000 mm 1,0 UV-I 226 W/m 9,2 C 13,3 C 7,9 km/h (2 Bft) 0,00 %
05.09.2015 14:38 13,3 C 76 % 1015,1 hPa 0,0 l/m 0,0 km/h (0 Bft) N-NO 24 0 min 0,000 mm 1,0 UV-I 219 W/m 9,2 C 13,3 C 0,0 km/h (0 Bft) 0,00 %
05.09.2015 14:43 13,4 C 74 % 1015,0 hPa 0,0 l/m 2,2 km/h (1 Bft) W-NW 282 0 min 0,000 mm 1,0 UV-I 248 W/m 8,9 C 13,4 C 4,0 km/h (1 Bft) 0,00 %
05.09.2015 14:48 13,5 C 72 % 1015,2 hPa 0,0 l/m 0,4 km/h (0 Bft) N-NW 348 0 min 0,000 mm 1,0 UV-I 184 W/m 8,6 C 13,5 C 4,0 km/h (1 Bft) 0,00 %
05.09.2015 14:53 13,4 C 74 % 1015,0 hPa 0,0 l/m 4,3 km/h (1 Bft) NW 308 0 min 0,000 mm 1,0 UV-I 185 W/m 8,9 C 13,4 C 11,9 km/h (2 Bft) 0,00 %
05.09.2015 14:58 13,4 C 74 % 1015,0 hPa 0,0 l/m 0,4 km/h (0 Bft) N-NO 24 0 min 0,000 mm 1,0 UV-I 212 W/m 8,9 C 13,4 C 4,0 km/h (1 Bft) 0,00 %
05.09.2015 15:03 13,5 C 74 % 1015,0 hPa 0,0 l/m 5,4 km/h (1 Bft) W-SW 249 0 min 0,000 mm 1,0 UV-I 218 W/m 9,0 C 13,5 C 7,9 km/h (2 Bft) 0,00 %
05.09.2015 15:08 13,5 C 75 % 1015,0 hPa 0,0 l/m 2,9 km/h (1 Bft) NO 49 0 min 0,000 mm 1,0 UV-I 177 W/m 9,2 C 13,5 C 7,9 km/h (2 Bft) 0,00 %
05.09.2015 15:13 13,5 C 76 % 1015,0 hPa 0,0 l/m 4,0 km/h (1 Bft) O-NO 61 0 min 0,000 mm 1,0 UV-I 150 W/m 9,4 C 13,5 C 7,9 km/h (2 Bft) 0,00 %
05.09.2015 15:18 13,4 C 76 % 1015,1 hPa 0,0 l/m 0,0 km/h (0 Bft) N 8 0 min 0,000 mm 1,0 UV-I 155 W/m 9,3 C 13,4 C 0,0 km/h (0 Bft) 0,00 %
05.09.2015 15:23 13,3 C 77 % 1015,0 hPa 0,0 l/m 1,8 km/h (1 Bft) NO 37 0 min 0,000 mm 1,0 UV-I 177 W/m 9,4 C 13,3 C 7,9 km/h (2 Bft) 0,00 %
05.09.2015 15:28 13,3 C 76 % 1014,7 hPa 0,0 l/m 5,4 km/h (1 Bft) N 351 0 min 0,000 mm 1,0 UV-I 204 W/m 9,2 C 13,3 C 7,9 km/h (2 Bft) 0,00 %
05.09.2015 15:33 13,4 C 75 % 1014,7 hPa 0,0 l/m 2,2 km/h (1 Bft) W-SW 258 0 min 0,000 mm 1,0 UV-I 216 W/m 9,1 C 13,4 C 4,0 km/h (1 Bft) 0,00 %
05.09.2015 15:38 13,4 C 74 % 1015,0 hPa 0,0 l/m 2,2 km/h (1 Bft) N-NO 19 0 min 0,000 mm 1,0 UV-I 237 W/m 8,9 C 13,4 C 4,0 km/h (1 Bft) 0,00 %
05.09.2015 15:43 13,6 C 75 % 1014,9 hPa 0,0 l/m 1,4 km/h (1 Bft) NW 318 0 min 0,000 mm 1,0 UV-I 204 W/m 9,3 C 13,6 C 4,0 km/h (1 Bft) 0,00 %
05.09.2015 15:48 13,7 C 75 % 1014,7 hPa 0,0 l/m 1,8 km/h (1 Bft) W-NW 295 0 min 0,000 mm 1,0 UV-I 201 W/m 9,3 C 13,7 C 4,0 km/h (1 Bft) 0,00 %
05.09.2015 15:53 13,8 C 77 % 1014,7 hPa 0,0 l/m 0,4 km/h (0 Bft) NO 55 0 min 0,000 mm 1,0 UV-I 228 W/m 9,8 C 13,8 C 4,0 km/h (1 Bft) 0,00 %
05.09.2015 15:58 13,8 C 78 % 1014,8 hPa 0,0 l/m 0,4 km/h (0 Bft) N-NW 348 0 min 0,000 mm 1,0 UV-I 200 W/m 10,0 C 13,8 C 4,0 km/h (1 Bft) 0,00 %
05.09.2015 16:03 13,8 C 79 % 1014,8 hPa 0,0 l/m 0,7 km/h (0 Bft) O 98 0 min 0,000 mm 1,0 UV-I 184 W/m 10,2 C 13,8 C 4,0 km/h (1 Bft) 0,00 %
05.09.2015 16:08 13,8 C 80 % 1014,8 hPa 0,0 l/m 0,0 km/h (0 Bft) S-SW 208 0 min 0,000 mm 1,0 UV-I 151 W/m 10,4 C 13,8 C 0,0 km/h (0 Bft) 0,00 %
05.09.2015 16:13 13,8 C 79 % 1014,9 hPa 0,0 l/m 0,4 km/h (0 Bft) N 353 0 min 0,000 mm 1,0 UV-I 151 W/m 10,2 C 13,8 C 4,0 km/h (1 Bft) 0,00 %
05.09.2015 16:18 13,8 C 77 % 1014,8 hPa 0,0 l/m 0,0 km/h (0 Bft) W-SW 256 0 min 0,000 mm 1,0 UV-I 143 W/m 9,8 C 13,8 C 0,0 km/h (0 Bft) 0,00 %
05.09.2015 16:23 13,7 C 72 % 1014,8 hPa 0,0 l/m 5,8 km/h (2 Bft) W 270 0 min 0,000 mm 1,0 UV-I 141 W/m 8,7 C 13,7 C 7,9 km/h (2 Bft) 0,00 %
05.09.2015 16:28 13,5 C 72 % 1015,0 hPa 0,0 l/m 8,3 km/h (2 Bft) W-SW 255 0 min 0,000 mm 1,0 UV-I 142 W/m 8,6 C 12,4 C 19,8 km/h (3 Bft) 0,00 %
05.09.2015 16:33 13,4 C 73 % 1014,8 hPa 0,0 l/m 2,2 km/h (1 Bft) O-SO 122 0 min 0,000 mm 1,0 UV-I 184 W/m 8,7 C 13,4 C 4,0 km/h (1 Bft) 0,00 %
05.09.2015 16:38 13,4 C 72 % 1014,8 hPa 0,0 l/m 2,9 km/h (1 Bft) S-SW 200 0 min 0,000 mm 1,0 UV-I 182 W/m 8,5 C 13,4 C 7,9 km/h (2 Bft) 0,00 %
05.09.2015 16:43 13,4 C 72 % 1014,7 hPa 0,0 l/m 0,7 km/h (0 Bft) N-NW 330 0 min 0,000 mm 1,0 UV-I 182 W/m 8,5 C 13,4 C 4,0 km/h (1 Bft) 0,00 %
05.09.2015 16:48 13,5 C 72 % 1014,8 hPa 0,0 l/m 0,7 km/h (0 Bft) N-NO 15 0 min 0,000 mm 1,0 UV-I 155 W/m 8,6 C 13,5 C 4,0 km/h (1 Bft) 0,00 %
05.09.2015 16:53 13,5 C 72 % 1014,8 hPa 0,0 l/m 0,4 km/h (0 Bft) N-NW 329 0 min 0,000 mm 1,0 UV-I 153 W/m 8,6 C 13,5 C 4,0 km/h (1 Bft) 0,00 %
05.09.2015 16:58 13,4 C 72 % 1014,7 hPa 0,0 l/m 7,9 km/h (2 Bft) NW 307 0 min 0,000 mm 1,0 UV-I 172 W/m 8,5 C 12,5 C 7,9 km/h (2 Bft) 0,00 %
05.09.2015 17:03 13,3 C 72 % 1014,7 hPa 0,0 l/m 0,4 km/h (0 Bft) N-NO 29 0 min 0,000 mm 1,0 UV-I 180 W/m 8,4 C 13,3 C 4,0 km/h (1 Bft) 0,00 %
05.09.2015 17:08 13,3 C 72 % 1014,8 hPa 0,0 l/m 0,4 km/h (0 Bft) NO 41 0 min 0,000 mm 1,0 UV-I 168 W/m 8,4 C 13,3 C 4,0 km/h (1 Bft) 0,00 %
05.09.2015 17:13 13,4 C 71 % 1014,7 hPa 0,0 l/m 0,7 km/h (0 Bft) NW 312 0 min 0,000 mm 1,0 UV-I 146 W/m 8,3 C 13,4 C 4,0 km/h (1 Bft) 0,00 %
05.09.2015 17:18 13,4 C 72 % 1014,8 hPa 0,0 l/m 0,4 km/h (0 Bft) NO 37 0 min 0,000 mm 1,0 UV-I 125 W/m 8,5 C 13,4 C 4,0 km/h (1 Bft) 0,00 %
05.09.2015 17:23 13,3 C 73 % 1014,9 hPa 0,0 l/m 4,0 km/h (1 Bft) O-NO 67 0 min 0,000 mm 1,0 UV-I 112 W/m 8,6 C 13,3 C 7,9 km/h (2 Bft) 0,00 %
05.09.2015 17:28 13,2 C 73 % 1015,0 hPa 0,0 l/m 0,7 km/h (0 Bft) O-NO 61 0 min 0,000 mm 1,0 UV-I 101 W/m 8,5 C 13,2 C 4,0 km/h (1 Bft) 0,00 %
05.09.2015 17:33 13,2 C 72 % 1015,0 hPa 0,0 l/m 5,4 km/h (1 Bft) N 350 0 min 0,000 mm 1,0 UV-I 101 W/m 8,3 C 13,2 C 11,9 km/h (2 Bft) 0,00 %
05.09.2015 17:38 13,1 C 73 % 1014,8 hPa 0,0 l/m 0,4 km/h (0 Bft) N 355 0 min 0,000 mm 1,0 UV-I 114 W/m 8,4 C 13,1 C 4,0 km/h (1 Bft) 0,00 %
05.09.2015 17:43 13,1 C 73 % 1014,9 hPa 0,0 l/m 4,3 km/h (1 Bft) S-SO 168 0 min 0,000 mm 1,0 UV-I 104 W/m 8,4 C 13,1 C 7,9 km/h (2 Bft) 0,00 %
05.09.2015 17:48 13,1 C 74 % 1014,9 hPa 0,0 l/m 0,4 km/h (0 Bft) NO 49 0 min 0,000 mm 0,0 UV-I 82 W/m 8,6 C 13,1 C 4,0 km/h (1 Bft) 0,00 %
05.09.2015 17:53 13,0 C 74 % 1015,1 hPa 0,0 l/m 6,5 km/h (2 Bft) SW 231 0 min 0,000 mm 0,0 UV-I 79 W/m 8,5 C 13,0 C 11,9 km/h (2 Bft) 0,00 %
05.09.2015 17:58 12,9 C 75 % 1015,1 hPa 0,0 l/m 7,2 km/h (2 Bft) W-NW 285 0 min 0,000 mm 0,0 UV-I 74 W/m 8,6 C 12,4 C 7,9 km/h (2 Bft) 0,00 %
05.09.2015 18:03 12,9 C 74 % 1015,2 hPa 0,0 l/m 0,7 km/h (0 Bft) S-SW 199 0 min 0,000 mm 0,0 UV-I 73 W/m 8,4 C 12,9 C 4,0 km/h (1 Bft) 0,00 %
05.09.2015 18:08 12,9 C 75 % 1015,0 hPa 0,0 l/m 1,8 km/h (1 Bft) W-SW 251 0 min 0,000 mm 0,0 UV-I 76 W/m 8,6 C 12,9 C 7,9 km/h (2 Bft) 0,00 %
05.09.2015 18:13 12,8 C 74 % 1015,0 hPa 0,0 l/m 7,2 km/h (2 Bft) W 279 0 min 0,000 mm 0,0 UV-I 67 W/m 8,3 C 12,3 C 11,9 km/h (2 Bft) 0,00 %
05.09.2015 18:18 12,8 C 74 % 1015,1 hPa 0,0 l/m 0,7 km/h (0 Bft) NO 49 0 min 0,000 mm 0,0 UV-I 53 W/m 8,3 C 12,8 C 4,0 km/h (1 Bft) 0,00 %
05.09.2015 18:23 12,7 C 74 % 1015,2 hPa 0,0 l/m 5,4 km/h (1 Bft) W 259 0 min 0,000 mm 0,0 UV-I 38 W/m 8,2 C 12,7 C 11,9 km/h (2 Bft) 0,00 %
05.09.2015 18:28 12,7 C 74 % 1015,3 hPa 0,0 l/m 0,7 km/h (0 Bft) N-NW 337 0 min 0,000 mm 0,0 UV-I 31 W/m 8,2 C 12,7 C 4,0 km/h (1 Bft) 0,00 %
05.09.2015 18:33 12,6 C 74 % 1015,3 hPa 0,0 l/m 0,7 km/h (0 Bft) N-NO 33 0 min 0,000 mm 0,0 UV-I 31 W/m 8,1 C 12,6 C 4,0 km/h (1 Bft) 0,00 %
05.09.2015 18:38 12,6 C 74 % 1015,5 hPa 0,0 l/m 3,2 km/h (1 Bft) N-NO 31 0 min 0,000 mm 0,0 UV-I 27 W/m 8,1 C 12,6 C 11,9 km/h (2 Bft) 0,00 %
05.09.2015 18:43 12,5 C 74 % 1015,6 hPa 0,0 l/m 2,2 km/h (1 Bft) W 275 0 min 0,000 mm 0,0 UV-I 25 W/m 8,0 C 12,5 C 7,9 km/h (2 Bft) 0,00 %
05.09.2015 18:48 12,5 C 74 % 1015,8 hPa 0,0 l/m 5,4 km/h (1 Bft) NW 316 0 min 0,000 mm 0,0 UV-I 19 W/m 8,0 C 12,5 C 7,9 km/h (2 Bft) 0,00 %
05.09.2015 18:53 12,4 C 74 % 1015,5 hPa 0,0 l/m 0,4 km/h (0 Bft) N-NO 32 0 min 0,000 mm 0,0 UV-I 19 W/m 7,9 C 12,4 C 4,0 km/h (1 Bft) 0,00 %
05.09.2015 18:58 12,2 C 73 % 1015,6 hPa 0,0 l/m 1,4 km/h (1 Bft) N-NW 336 0 min 0,000 mm 0,0 UV-I 16 W/m 7,5 C 12,2 C 4,0 km/h (1 Bft) 0,00 %
05.09.2015 19:03 12,1 C 73 % 1015,7 hPa 0,0 l/m 0,0 km/h (0 Bft) SO 143 0 min 0,000 mm 0,0 UV-I 5 W/m 7,4 C 12,1 C 0,0 km/h (0 Bft) 0,00 %
05.09.2015 19:08 12,0 C 74 % 1015,5 hPa 0,0 l/m 0,4 km/h (0 Bft) W-NW 288 0 min 0,000 mm 0,0 UV-I 4 W/m 7,5 C 12,0 C 4,0 km/h (1 Bft) 0,00 %
05.09.2015 19:13 11,9 C 75 % 1015,6 hPa 0,0 l/m 4,3 km/h (1 Bft) NW 305 0 min 0,000 mm 0,0 UV-I 5 W/m 7,6 C 11,9 C 7,9 km/h (2 Bft) 0,00 %
05.09.2015 19:18 11,8 C 75 % 1015,8 hPa 0,0 l/m 1,4 km/h (1 Bft) N-NO 18 0 min 0,000 mm 0,0 UV-I 5 W/m 7,5 C 11,8 C 4,0 km/h (1 Bft) 0,00 %
05.09.2015 19:23 11,8 C 75 % 1015,6 hPa 0,0 l/m 1,4 km/h (1 Bft) O-SO 115 0 min 0,000 mm 0,0 UV-I 4 W/m 7,5 C 11,8 C 4,0 km/h (1 Bft) 0,00 %
05.09.2015 19:28 11,7 C 75 % 1015,6 hPa 0,0 l/m 4,7 km/h (1 Bft) W-SW 252 0 min 0,000 mm 0,0 UV-I 0 W/m 7,4 C 11,7 C 7,9 km/h (2 Bft) 0,00 %
05.09.2015 19:33 11,6 C 75 % 1015,4 hPa 0,0 l/m 0,7 km/h (0 Bft) O-SO 104 0 min 0,000 mm 0,0 UV-I 0 W/m 7,3 C 11,6 C 4,0 km/h (1 Bft) 0,00 %
05.09.2015 19:38 11,5 C 75 % 1015,5 hPa 0,0 l/m 0,0 km/h (0 Bft) NO 38 0 min 0,000 mm 0,0 UV-I 0 W/m 7,2 C 11,5 C 0,0 km/h (0 Bft) 0,00 %
05.09.2015 19:43 11,4 C 76 % 1015,4 hPa 0,0 l/m 0,7 km/h (0 Bft) N-NW 335 0 min 0,000 mm 0,0 UV-I 0 W/m 7,3 C 11,4 C 4,0 km/h (1 Bft) 0,00 %
05.09.2015 19:48 11,2 C 76 % 1015,6 hPa 0,0 l/m 0,0 km/h (0 Bft) S 185 0 min 0,000 mm 0,0 UV-I 0 W/m 7,1 C 11,2 C 0,0 km/h (0 Bft) 0,00 %
05.09.2015 19:53 11,1 C 77 % 1015,4 hPa 0,0 l/m 0,0 km/h (0 Bft) N-NO 20 0 min 0,000 mm 0,0 UV-I 0 W/m 7,2 C 11,1 C 0,0 km/h (0 Bft) 0,00 %
05.09.2015 19:58 11,0 C 77 % 1015,4 hPa 0,0 l/m 0,4 km/h (0 Bft) O 83 0 min 0,000 mm 0,0 UV-I 0 W/m 7,1 C 11,0 C 4,0 km/h (1 Bft) 0,00 %
05.09.2015 20:03 11,0 C 78 % 1015,1 hPa 0,0 l/m 0,0 km/h (0 Bft) N-NO 27 0 min 0,000 mm 0,0 UV-I 0 W/m 7,3 C 11,0 C 0,0 km/h (0 Bft) 0,00 %
05.09.2015 20:08 10,9 C 79 % 1015,6 hPa 0,0 l/m 0,0 km/h (0 Bft) NO 50 0 min 0,000 mm 0,0 UV-I 0 W/m 7,4 C 10,9 C 0,0 km/h (0 Bft) 0,00 %
05.09.2015 20:13 10,9 C 79 % 1015,6 hPa 0,0 l/m 1,8 km/h (1 Bft) O-NO 61 0 min 0,000 mm 0,0 UV-I 0 W/m 7,4 C 10,9 C 4,0 km/h (1 Bft) 0,00 %
05.09.2015 20:18 10,9 C 79 % 1015,7 hPa 0,0 l/m 1,8 km/h (1 Bft) W-NW 286 0 min 0,000 mm 0,0 UV-I 0 W/m 7,4 C 10,9 C 4,0 km/h (1 Bft) 0,00 %
05.09.2015 20:23 10,9 C 78 % 1015,8 hPa 0,0 l/m 0,0 km/h (0 Bft) O-NO 70 0 min 0,000 mm 0,0 UV-I 0 W/m 7,2 C 10,9 C 0,0 km/h (0 Bft) 0,00 %
05.09.2015 20:28 10,9 C 77 % 1015,8 hPa 0,0 l/m 0,4 km/h (0 Bft) N-NO 25 0 min 0,000 mm 0,0 UV-I 0 W/m 7,0 C 10,9 C 4,0 km/h (1 Bft) 0,00 %
05.09.2015 20:33 11,0 C 77 % 1016,0 hPa 0,0 l/m 0,7 km/h (0 Bft) O-NO 66 0 min 0,000 mm 0,0 UV-I 0 W/m 7,1 C 11,0 C 4,0 km/h (1 Bft) 0,00 %
05.09.2015 20:38 11,1 C 77 % 1015,9 hPa 0,0 l/m 0,0 km/h (0 Bft) O-NO 73 0 min 0,000 mm 0,0 UV-I 0 W/m 7,2 C 11,1 C 0,0 km/h (0 Bft) 0,00 %
05.09.2015 20:43 11,1 C 76 % 1015,8 hPa 0,0 l/m 0,4 km/h (0 Bft) W-SW 255 0 min 0,000 mm 0,0 UV-I 0 W/m 7,0 C 11,1 C 4,0 km/h (1 Bft) 0,00 %
05.09.2015 20:48 11,1 C 76 % 1016,0 hPa 0,0 l/m 0,0 km/h (0 Bft) W-NW 300 0 min 0,000 mm 0,0 UV-I 0 W/m 7,0 C 11,1 C 0,0 km/h (0 Bft) 0,00 %
05.09.2015 20:53 11,2 C 77 % 1016,0 hPa 0,0 l/m 0,0 km/h (0 Bft) O-SO 117 0 min 0,000 mm 0,0 UV-I 0 W/m 7,3 C 11,2 C 0,0 km/h (0 Bft) 0,00 %
05.09.2015 20:58 11,2 C 76 % 1015,9 hPa 0,0 l/m 0,0 km/h (0 Bft) N 3 0 min 0,000 mm 0,0 UV-I 0 W/m 7,1 C 11,2 C 0,0 km/h (0 Bft) 0,00 %
05.09.2015 21:03 11,3 C 76 % 1016,0 hPa 0,0 l/m 0,0 km/h (0 Bft) N-NW 333 0 min 0,000 mm 0,0 UV-I 0 W/m 7,2 C 11,3 C 0,0 km/h (0 Bft) 0,00 %
05.09.2015 21:08 11,3 C 75 % 1015,9 hPa 0,0 l/m 0,7 km/h (0 Bft) N-NW 343 0 min 0,000 mm 0,0 UV-I 0 W/m 7,0 C 11,3 C 4,0 km/h (1 Bft) 0,00 %
05.09.2015 21:13 11,4 C 75 % 1016,0 hPa 0,0 l/m 0,4 km/h (0 Bft) O-SO 109 0 min 0,000 mm 0,0 UV-I 0 W/m 7,1 C 11,4 C 4,0 km/h (1 Bft) 0,00 %
05.09.2015 21:18 11,4 C 76 % 1016,0 hPa 0,0 l/m 0,0 km/h (0 Bft) NO 39 0 min 0,000 mm 0,0 UV-I 0 W/m 7,3 C 11,4 C 0,0 km/h (0 Bft) 0,00 %
05.09.2015 21:23 11,4 C 75 % 1015,8 hPa 0,0 l/m 0,0 km/h (0 Bft) NO 52 0 min 0,000 mm 0,0 UV-I 0 W/m 7,1 C 11,4 C 0,0 km/h (0 Bft) 0,00 %
05.09.2015 21:28 11,4 C 74 % 1016,0 hPa 0,0 l/m 0,4 km/h (0 Bft) O-NO 70 0 min 0,000 mm 0,0 UV-I 0 W/m 6,9 C 11,4 C 4,0 km/h (1 Bft) 0,00 %
05.09.2015 21:33 11,5 C 74 % 1016,0 hPa 0,0 l/m 0,0 km/h (0 Bft) N 354 0 min 0,000 mm 0,0 UV-I 0 W/m 7,0 C 11,5 C 0,0 km/h (0 Bft) 0,00 %
05.09.2015 21:38 11,5 C 74 % 1016,0 hPa 0,0 l/m 0,0 km/h (0 Bft) NW 322 0 min 0,000 mm 0,0 UV-I 0 W/m 7,0 C 11,5 C 0,0 km/h (0 Bft) 0,00 %
05.09.2015 21:43 11,5 C 75 % 1015,8 hPa 0,0 l/m 2,2 km/h (1 Bft) W-NW 290 0 min 0,000 mm 0,0 UV-I 0 W/m 7,2 C 11,5 C 4,0 km/h (1 Bft) 0,00 %
05.09.2015 21:48 11,5 C 75 % 1016,0 hPa 0,0 l/m 0,4 km/h (0 Bft) N-NO 24 0 min 0,000 mm 0,0 UV-I 0 W/m 7,2 C 11,5 C 4,0 km/h (1 Bft) 0,00 %
05.09.2015 21:53 11,5 C 75 % 1015,9 hPa 0,0 l/m 0,0 km/h (0 Bft) O 80 0 min 0,000 mm 0,0 UV-I 0 W/m 7,2 C 11,5 C 0,0 km/h (0 Bft) 0,00 %
05.09.2015 21:58 11,5 C 76 % 1015,9 hPa 0,0 l/m 0,0 km/h (0 Bft) NO 54 0 min 0,000 mm 0,0 UV-I 0 W/m 7,4 C 11,5 C 0,0 km/h (0 Bft) 0,00 %
05.09.2015 22:03 11,4 C 76 % 1016,0 hPa 0,0 l/m 0,4 km/h (0 Bft) O-NO 68 0 min 0,000 mm 0,0 UV-I 0 W/m 7,3 C 11,4 C 4,0 km/h (1 Bft) 0,00 %
05.09.2015 22:08 11,4 C 76 % 1015,9 hPa 0,0 l/m 1,8 km/h (1 Bft) SO 128 0 min 0,000 mm 0,0 UV-I 0 W/m 7,3 C 11,4 C 4,0 km/h (1 Bft) 0,00 %
05.09.2015 22:13 11,4 C 77 % 1016,0 hPa 0,0 l/m 1,4 km/h (1 Bft) O 94 0 min 0,000 mm 0,0 UV-I 0 W/m 7,5 C 11,4 C 4,0 km/h (1 Bft) 0,00 %
05.09.2015 22:18 11,3 C 78 % 1015,9 hPa 0,0 l/m 0,4 km/h (0 Bft) NO 51 0 min 0,000 mm 0,0 UV-I 0 W/m 7,6 C 11,3 C 4,0 km/h (1 Bft) 0,00 %
05.09.2015 22:23 11,3 C 78 % 1016,0 hPa 0,0 l/m 0,7 km/h (0 Bft) N 355 0 min 0,000 mm 0,0 UV-I 0 W/m 7,6 C 11,3 C 4,0 km/h (1 Bft) 0,00 %
05.09.2015 22:28 11,3 C 78 % 1016,0 hPa 0,0 l/m 0,7 km/h (0 Bft) NO 44 0 min 0,000 mm 0,0 UV-I 0 W/m 7,6 C 11,3 C 4,0 km/h (1 Bft) 0,00 %
05.09.2015 22:33 11,3 C 78 % 1016,2 hPa 0,0 l/m 0,4 km/h (0 Bft) NO 36 0 min 0,000 mm 0,0 UV-I 0 W/m 7,6 C 11,3 C 4,0 km/h (1 Bft) 0,00 %
05.09.2015 22:38 11,3 C 78 % 1016,2 hPa 0,0 l/m 0,0 km/h (0 Bft) N 351 0 min 0,000 mm 0,0 UV-I 0 W/m 7,6 C 11,3 C 0,0 km/h (0 Bft) 0,00 %
05.09.2015 22:43 11,2 C 78 % 1016,2 hPa 0,0 l/m 3,2 km/h (1 Bft) NW 305 0 min 0,000 mm 0,0 UV-I 0 W/m 7,5 C 11,2 C 7,9 km/h (2 Bft) 0,00 %
05.09.2015 22:48 11,2 C 78 % 1016,3 hPa 0,0 l/m 2,9 km/h (1 Bft) W-NW 302 0 min 0,000 mm 0,0 UV-I 0 W/m 7,5 C 11,2 C 4,0 km/h (1 Bft) 0,00 %
05.09.2015 22:53 11,2 C 78 % 1016,4 hPa 0,0 l/m 0,4 km/h (0 Bft) NO 48 0 min 0,000 mm 0,0 UV-I 0 W/m 7,5 C 11,2 C 4,0 km/h (1 Bft) 0,00 %
05.09.2015 22:58 11,2 C 78 % 1016,3 hPa 0,0 l/m 0,4 km/h (0 Bft) O-NO 59 0 min 0,000 mm 0,0 UV-I 0 W/m 7,5 C 11,2 C 4,0 km/h (1 Bft) 0,00 %
05.09.2015 23:03 11,1 C 78 % 1016,3 hPa 0,0 l/m 0,4 km/h (0 Bft) NO 43 0 min 0,000 mm 0,0 UV-I 0 W/m 7,4 C 11,1 C 4,0 km/h (1 Bft) 0,00 %
05.09.2015 23:08 11,1 C 78 % 1016,3 hPa 0,0 l/m 0,7 km/h (0 Bft) N-NO 28 0 min 0,000 mm 0,0 UV-I 0 W/m 7,4 C 11,1 C 4,0 km/h (1 Bft) 0,00 %
05.09.2015 23:13 11,1 C 78 % 1016,3 hPa 0,0 l/m 1,4 km/h (1 Bft) O-NO 64 0 min 0,000 mm 0,0 UV-I 0 W/m 7,4 C 11,1 C 4,0 km/h (1 Bft) 0,00 %
05.09.2015 23:18 11,1 C 78 % 1016,2 hPa 0,0 l/m 5,4 km/h (1 Bft) N-NW 339 0 min 0,000 mm 0,0 UV-I 0 W/m 7,4 C 11,1 C 7,9 km/h (2 Bft) 0,00 %
05.09.2015 23:23 11,2 C 77 % 1016,4 hPa 0,0 l/m 0,0 km/h (0 Bft) N 356 0 min 0,000 mm 0,0 UV-I 0 W/m 7,3 C 11,2 C 0,0 km/h (0 Bft) 0,00 %
05.09.2015 23:28 11,2 C 77 % 1016,4 hPa 0,0 l/m 0,0 km/h (0 Bft) N 356 0 min 0,000 mm 0,0 UV-I 0 W/m 7,3 C 11,2 C 0,0 km/h (0 Bft) 0,00 %
05.09.2015 23:33 11,3 C 76 % 1016,4 hPa 0,0 l/m 0,4 km/h (0 Bft) NO 50 0 min 0,000 mm 0,0 UV-I 0 W/m 7,2 C 11,3 C 4,0 km/h (1 Bft) 0,00 %
05.09.2015 23:38 11,3 C 75 % 1016,5 hPa 0,0 l/m 5,8 km/h (2 Bft) NW 317 0 min 0,000 mm 0,0 UV-I 0 W/m 7,0 C 11,3 C 11,9 km/h (2 Bft) 0,00 %
05.09.2015 23:43 11,4 C 75 % 1016,4 hPa 0,0 l/m 0,7 km/h (0 Bft) N-NO 14 0 min 0,000 mm 0,0 UV-I 0 W/m 7,1 C 11,4 C 4,0 km/h (1 Bft) 0,00 %
05.09.2015 23:48 11,4 C 75 % 1016,4 hPa 0,0 l/m 1,8 km/h (1 Bft) NW 323 0 min 0,000 mm 0,0 UV-I 0 W/m 7,1 C 11,4 C 4,0 km/h (1 Bft) 0,00 %
05.09.2015 23:53 11,5 C 75 % 1016,3 hPa 0,0 l/m 0,7 km/h (0 Bft) W-SW 256 0 min 0,000 mm 0,0 UV-I 0 W/m 7,2 C 11,5 C 4,0 km/h (1 Bft) 0,00 %
05.09.2015 23:58 11,5 C 75 % 1016,4 hPa 0,0 l/m 0,4 km/h (0 Bft) W-SW 254 0 min 0,000 mm 0,0 UV-I 0 W/m 7,2 C 11,5 C 4,0 km/h (1 Bft) 0,00 %
_ Min-Zeit 20:08 17:13 05:52 - 00:02 - - - - - - 21:28 12:03 00:02 00:02
Minimum _ 10,9 C 71 % 1013,3 hPa - 0,0 km/h (0 Bft) - - - - - - 6,9 C 8,6 C 0,0 km/h (0 Bft) 0,00 %
_ Max-Zeit 00:02 04:27 23:38 02:17 12:03 - - 00:02 00:02 13:53 13:58 08:57 00:02 12:03 00:02
Maximum _ 15,0 C 99 % 1016,5 hPa 0,6 l/m 11,5 km/h
W-SW (2 Bft)
- - 0 min 0,000 mm 2,0 UV-I 340 W/m 13,1 C 15,0 C 19,8 km/h
W-SW (3 Bft)
0,00 %
Durchschnitt _ 12,5 C 86 % 1014,9 hPa #7,8 l/m 1,2 km/h (1 Bft) W-SW - #0 min. #0,000 mm 1,0 UV-I 131 W/m 10,2 C 12,4 C 2,9 km/h (1 Bft) 0,00 %